TELKOM 3S

Last updated on Sun Jun 21 2026 00:03:07 GMT+0000 (Coordinated Universal Time)

1 41944U 17007A 26171.44072373 .00000000 00000+0 00000+0 0 9992 2 41944 0.0161 4.5513 0002382 87.4027 93.3715 1.00269139 34177
UTC large
Height (km)
Speed (km/s)
/
Latitude / Longitude
Inclination (degrees)
Orbital Period (minutes)
Azimuth
Elevation
Range (km)
Doppler Factor

Next 0 passes for location: London (51.5072 / 0.1276)

No passes found over London.
TELKOM 3S